Location: Cosy Dell
(34.2789°N, 117.4537°W)
Time: 21:10:47
(UTC+00:00)

Cosmos 2369 Rocket - Pass Details

Date: 14 July 2020
Orbit: 829 x 852 km, 71.0° (Epoch: 12 August)

Event Time Altitude Azimuth Distance (km) Brightness Sun altitude
Rises 06:07:20 0° 351° (N) 3,380 6.4 -28.5°
Reaches altitude 10° 06:10:07 10° 2° (N) 2,445 5.3 -28.7°
Enters shadow 06:14:43 28° 58° (ENE) 1,519 3.5 -29.2°
